Year,Month,Day,Hour,Minute,Value (Times are PST for temperature in C)
2007,10,24,00,00,14.20
2007,10,24,00,01,14.30
2007,10,24,00,02,14.30
2007,10,24,00,03,14.50
2007,10,24,00,04,14.60
2007,10,24,00,05,14.70
2007,10,24,00,06,14.70
2007,10,24,00,07,14.80
2007,10,24,00,08,14.80
2007,10,24,00,09,14.80
2007,10,24,00,10,14.80
2007,10,24,00,11,14.80
2007,10,24,00,12,14.90
2007,10,24,00,13,14.80
2007,10,24,00,14,14.80
2007,10,24,00,15,14.90
2007,10,24,00,16,14.90
2007,10,24,00,17,14.80
2007,10,24,00,18,14.80
2007,10,24,00,19,14.70
2007,10,24,00,20,14.70
2007,10,24,00,21,14.80
2007,10,24,00,22,14.80
2007,10,24,00,23,14.80
2007,10,24,00,24,14.80
2007,10,24,00,25,14.80
2007,10,24,00,26,14.80
2007,10,24,00,27,14.70
2007,10,24,00,28,14.70
2007,10,24,00,29,14.60
2007,10,24,00,30,14.60
2007,10,24,00,31,14.50
2007,10,24,00,32,14.50
2007,10,24,00,33,14.50
2007,10,24,00,34,14.50
2007,10,24,00,35,14.50
2007,10,24,00,36,14.60
2007,10,24,00,37,14.60
2007,10,24,00,38,14.60
2007,10,24,00,39,14.70
2007,10,24,00,40,14.70
2007,10,24,00,41,14.70
2007,10,24,00,42,14.70
2007,10,24,00,43,14.60
2007,10,24,00,44,14.60
2007,10,24,00,45,14.60
2007,10,24,00,46,14.50
2007,10,24,00,47,14.50
2007,10,24,00,48,14.40
2007,10,24,00,49,14.40
2007,10,24,00,50,14.40
2007,10,24,00,51,14.40
2007,10,24,00,52,14.30
2007,10,24,00,53,14.30
2007,10,24,00,54,14.30
2007,10,24,00,55,14.20
2007,10,24,00,56,14.20
2007,10,24,00,57,14.10
2007,10,24,00,58,14.10
2007,10,24,00,59,14.00
2007,10,24,01,00,13.90
2007,10,24,01,01,13.80
2007,10,24,01,02,13.80
2007,10,24,01,03,13.80
2007,10,24,01,04,13.70
2007,10,24,01,05,13.70
2007,10,24,01,06,13.60
2007,10,24,01,07,13.60
2007,10,24,01,08,13.60
2007,10,24,01,09,13.50
2007,10,24,01,10,13.40
2007,10,24,01,11,13.40
2007,10,24,01,12,13.40
2007,10,24,01,13,13.30
2007,10,24,01,14,13.30
2007,10,24,01,15,13.30
2007,10,24,01,16,13.30
2007,10,24,01,17,13.30
2007,10,24,01,18,13.30
2007,10,24,01,19,13.30
2007,10,24,01,20,13.20
2007,10,24,01,21,13.20
2007,10,24,01,22,13.30
2007,10,24,01,23,13.40
2007,10,24,01,24,13.40
2007,10,24,01,25,13.50
2007,10,24,01,26,13.60
2007,10,24,01,27,13.60
2007,10,24,01,28,13.60
2007,10,24,01,29,13.60
2007,10,24,01,30,13.60
2007,10,24,01,31,13.70
2007,10,24,01,32,13.80
2007,10,24,01,33,14.10
2007,10,24,01,34,14.30
2007,10,24,01,35,14.50
2007,10,24,01,36,14.60
2007,10,24,01,37,14.80
2007,10,24,01,38,15.00
2007,10,24,01,39,15.00
2007,10,24,01,40,15.00
2007,10,24,01,41,15.00
2007,10,24,01,42,15.00
2007,10,24,01,43,14.80
2007,10,24,01,44,14.60
2007,10,24,01,45,14.50
2007,10,24,01,46,14.30
2007,10,24,01,47,14.20
2007,10,24,01,48,14.00
2007,10,24,01,49,13.90
2007,10,24,01,50,13.90
2007,10,24,01,51,13.80
2007,10,24,01,52,13.70
2007,10,24,01,53,13.50
2007,10,24,01,54,13.40
2007,10,24,01,55,13.20
2007,10,24,01,56,13.10
2007,10,24,01,57,13.00
2007,10,24,01,58,12.90
2007,10,24,01,59,12.90
2007,10,24,02,00,12.90
2007,10,24,02,01,12.90
2007,10,24,02,02,13.00
2007,10,24,02,03,13.00
2007,10,24,02,04,13.00
2007,10,24,02,05,13.10
2007,10,24,02,06,13.00
2007,10,24,02,07,13.00
2007,10,24,02,08,13.00
2007,10,24,02,09,13.00
2007,10,24,02,10,13.00
2007,10,24,02,11,13.10
2007,10,24,02,12,13.10
2007,10,24,02,13,13.20
2007,10,24,02,14,13.20
2007,10,24,02,15,13.20
2007,10,24,02,16,13.30
2007,10,24,02,17,13.30
2007,10,24,02,18,13.40
2007,10,24,02,19,13.60
2007,10,24,02,20,13.60
2007,10,24,02,21,13.60
2007,10,24,02,22,13.60
2007,10,24,02,23,13.60
2007,10,24,02,24,13.60
2007,10,24,02,25,13.50
2007,10,24,02,26,13.40
2007,10,24,02,27,13.30
2007,10,24,02,28,13.20
2007,10,24,02,29,13.20
2007,10,24,02,30,13.10
2007,10,24,02,31,13.10
2007,10,24,02,32,13.10
2007,10,24,02,33,13.10
2007,10,24,02,34,13.10
2007,10,24,02,35,13.10
2007,10,24,02,36,13.10
2007,10,24,02,37,13.10
2007,10,24,02,38,13.10
2007,10,24,02,39,13.20
2007,10,24,02,40,13.20
2007,10,24,02,41,13.20
2007,10,24,02,42,13.30
2007,10,24,02,43,13.30
2007,10,24,02,44,13.20
2007,10,24,02,45,13.20
2007,10,24,02,46,13.20
2007,10,24,02,47,13.20
2007,10,24,02,48,13.20
2007,10,24,02,49,13.20
2007,10,24,02,50,13.30
2007,10,24,02,51,13.30
2007,10,24,02,52,13.40
2007,10,24,02,53,13.60
2007,10,24,02,54,13.70
2007,10,24,02,55,13.80
2007,10,24,02,56,13.80
2007,10,24,02,57,13.80
2007,10,24,02,58,13.80
2007,10,24,02,59,13.80
2007,10,24,03,00,13.80
2007,10,24,03,01,13.80
2007,10,24,03,02,13.80
2007,10,24,03,03,13.80
2007,10,24,03,04,13.70
2007,10,24,03,05,13.70
2007,10,24,03,06,13.70
2007,10,24,03,07,13.70
2007,10,24,03,08,13.60
2007,10,24,03,09,13.60
2007,10,24,03,10,13.60
2007,10,24,03,11,13.60
2007,10,24,03,12,13.60
2007,10,24,03,13,13.60
2007,10,24,03,14,13.50
2007,10,24,03,15,13.50
2007,10,24,03,16,13.50
2007,10,24,03,17,13.40
2007,10,24,03,18,13.40
2007,10,24,03,19,13.40
2007,10,24,03,20,13.40
2007,10,24,03,21,13.40
2007,10,24,03,22,13.40
2007,10,24,03,23,13.40
2007,10,24,03,24,13.40
2007,10,24,03,25,13.40
2007,10,24,03,26,13.40
2007,10,24,03,27,13.40
2007,10,24,03,28,13.40
2007,10,24,03,29,13.40
2007,10,24,03,30,13.40
2007,10,24,03,31,13.40
2007,10,24,03,32,13.40
2007,10,24,03,33,13.30
2007,10,24,03,34,13.30
2007,10,24,03,35,13.30
2007,10,24,03,36,13.20
2007,10,24,03,37,13.20
2007,10,24,03,38,13.10
2007,10,24,03,39,13.10
2007,10,24,03,40,13.00
2007,10,24,03,41,13.00
2007,10,24,03,42,13.10
2007,10,24,03,43,13.10
2007,10,24,03,44,13.20
2007,10,24,03,45,13.30
2007,10,24,03,46,13.30
2007,10,24,03,47,13.30
2007,10,24,03,48,13.30
2007,10,24,03,49,13.30
2007,10,24,03,50,13.30
2007,10,24,03,51,13.30
2007,10,24,03,52,13.20
2007,10,24,03,53,13.20
2007,10,24,03,54,13.20
2007,10,24,03,55,13.20
2007,10,24,03,56,13.20
2007,10,24,03,57,13.10
2007,10,24,03,58,13.10
2007,10,24,03,59,13.00
2007,10,24,04,00,13.00
2007,10,24,04,01,12.90
2007,10,24,04,02,12.80
2007,10,24,04,03,12.80
2007,10,24,04,04,12.80
2007,10,24,04,05,12.80
2007,10,24,04,06,12.70
2007,10,24,04,07,12.70
2007,10,24,04,08,12.60
2007,10,24,04,09,12.50
2007,10,24,04,10,12.40
2007,10,24,04,11,12.30
2007,10,24,04,12,12.30
2007,10,24,04,13,12.20
2007,10,24,04,14,12.10
2007,10,24,04,15,12.00
2007,10,24,04,16,12.00
2007,10,24,04,17,11.90
2007,10,24,04,18,11.80
2007,10,24,04,19,11.80
2007,10,24,04,20,11.70
2007,10,24,04,21,11.60
2007,10,24,04,22,11.50
2007,10,24,04,23,11.30
2007,10,24,04,24,11.30
2007,10,24,04,25,11.20
2007,10,24,04,26,11.20
2007,10,24,04,27,11.10
2007,10,24,04,28,11.10
2007,10,24,04,29,11.10
2007,10,24,04,30,11.00
2007,10,24,04,31,11.00
2007,10,24,04,32,10.90
2007,10,24,04,33,10.80
2007,10,24,04,34,10.80
2007,10,24,04,35,10.80
2007,10,24,04,36,10.80
2007,10,24,04,37,10.80
2007,10,24,04,38,10.90
2007,10,24,04,39,10.90
2007,10,24,04,40,10.90
2007,10,24,04,41,10.80
2007,10,24,04,42,10.80
2007,10,24,04,43,10.80
2007,10,24,04,44,10.80
2007,10,24,04,45,10.80
2007,10,24,04,46,10.80
2007,10,24,04,47,10.80
2007,10,24,04,48,10.70
2007,10,24,04,49,10.70
2007,10,24,04,50,10.60
2007,10,24,04,51,10.70
2007,10,24,04,52,10.70
2007,10,24,04,53,10.70
2007,10,24,04,54,10.80
2007,10,24,04,55,10.80
2007,10,24,04,56,10.80
2007,10,24,04,57,10.80
2007,10,24,04,58,10.80
2007,10,24,04,59,10.90
2007,10,24,05,00,11.00
2007,10,24,05,01,11.00
2007,10,24,05,02,11.00
2007,10,24,05,03,11.00
2007,10,24,05,04,11.00
2007,10,24,05,05,11.10
2007,10,24,05,06,11.10
2007,10,24,05,07,11.10
2007,10,24,05,08,11.20
2007,10,24,05,09,11.20
2007,10,24,05,10,11.20
2007,10,24,05,11,11.20
2007,10,24,05,12,11.20
2007,10,24,05,13,11.20
2007,10,24,05,14,11.20
2007,10,24,05,15,11.10
2007,10,24,05,16,11.00
2007,10,24,05,17,11.00
2007,10,24,05,18,11.00
2007,10,24,05,19,10.90
2007,10,24,05,20,10.80
2007,10,24,05,21,10.80
2007,10,24,05,22,10.80
2007,10,24,05,23,10.70
2007,10,24,05,24,10.70
2007,10,24,05,25,10.70
2007,10,24,05,26,10.80
2007,10,24,05,27,10.80
2007,10,24,05,28,10.90
2007,10,24,05,29,10.90
2007,10,24,05,30,11.00
2007,10,24,05,31,11.10
2007,10,24,05,32,11.10
2007,10,24,05,33,11.20
2007,10,24,05,34,11.20
2007,10,24,05,35,11.20
2007,10,24,05,36,11.20
2007,10,24,05,37,11.20
2007,10,24,05,38,11.20
2007,10,24,05,39,11.20
2007,10,24,05,40,11.20
2007,10,24,05,41,11.20
2007,10,24,05,42,11.30
2007,10,24,05,43,11.40
2007,10,24,05,44,11.40
2007,10,24,05,45,11.40
2007,10,24,05,46,11.40
2007,10,24,05,47,11.60
2007,10,24,05,48,11.70
2007,10,24,05,49,11.80
2007,10,24,05,50,12.00
2007,10,24,05,51,12.10
2007,10,24,05,52,12.20
2007,10,24,05,53,12.30
2007,10,24,05,54,12.40
2007,10,24,05,55,12.50
2007,10,24,05,56,12.60
2007,10,24,05,57,12.60
2007,10,24,05,58,12.60
2007,10,24,05,59,12.60
2007,10,24,06,00,12.70
2007,10,24,06,01,12.60
2007,10,24,06,02,12.60
2007,10,24,06,03,12.60
2007,10,24,06,04,12.70
2007,10,24,06,05,12.70
2007,10,24,06,06,12.70
2007,10,24,06,07,12.80
2007,10,24,06,08,12.80
2007,10,24,06,09,12.80
2007,10,24,06,10,12.80
2007,10,24,06,11,12.80
2007,10,24,06,12,12.80
2007,10,24,06,13,12.70
2007,10,24,06,14,12.70
2007,10,24,06,15,12.70
2007,10,24,06,16,12.60
2007,10,24,06,17,12.60
2007,10,24,06,18,12.60
2007,10,24,06,19,12.60
2007,10,24,06,20,12.70
2007,10,24,06,21,12.80
2007,10,24,06,22,12.80
2007,10,24,06,23,12.90
2007,10,24,06,24,12.90
2007,10,24,06,25,12.90
2007,10,24,06,26,12.70
2007,10,24,06,27,12.60
2007,10,24,06,28,12.50
2007,10,24,06,29,12.40
2007,10,24,06,30,12.30
2007,10,24,06,31,12.20
2007,10,24,06,32,12.10
2007,10,24,06,33,12.10
2007,10,24,06,34,12.10
2007,10,24,06,35,12.00
2007,10,24,06,36,11.90
2007,10,24,06,37,11.90
2007,10,24,06,38,11.90
2007,10,24,06,39,12.00
2007,10,24,06,40,12.00
2007,10,24,06,41,12.00
2007,10,24,06,42,12.00
2007,10,24,06,43,12.00
2007,10,24,06,44,12.10
2007,10,24,06,45,12.10
2007,10,24,06,46,12.10
2007,10,24,06,47,12.10
2007,10,24,06,48,12.20
2007,10,24,06,49,12.20
2007,10,24,06,50,12.20
2007,10,24,06,51,12.10
2007,10,24,06,52,12.00
2007,10,24,06,53,11.90
2007,10,24,06,54,11.90
2007,10,24,06,55,11.90
2007,10,24,06,56,11.90
2007,10,24,06,57,11.90
2007,10,24,06,58,11.90
2007,10,24,06,59,11.90
2007,10,24,07,00,11.80
2007,10,24,07,01,11.80
2007,10,24,07,02,11.80
2007,10,24,07,03,11.80
2007,10,24,07,04,11.80
2007,10,24,07,05,11.80
2007,10,24,07,06,11.90
2007,10,24,07,07,11.90
2007,10,24,07,08,11.90
2007,10,24,07,09,11.90
2007,10,24,07,10,11.90
2007,10,24,07,11,11.90
2007,10,24,07,12,11.90
2007,10,24,07,13,11.80
2007,10,24,07,14,11.80
2007,10,24,07,15,11.80
2007,10,24,07,16,11.80
2007,10,24,07,17,11.70
2007,10,24,07,18,11.80
2007,10,24,07,19,11.90
2007,10,24,07,20,11.90
2007,10,24,07,21,11.90
2007,10,24,07,22,11.90
2007,10,24,07,23,11.80
2007,10,24,07,24,11.70
2007,10,24,07,25,11.70
2007,10,24,07,26,11.70
2007,10,24,07,27,11.70
2007,10,24,07,28,11.80
2007,10,24,07,29,11.90
2007,10,24,07,30,12.00
2007,10,24,07,31,12.10
2007,10,24,07,32,12.20
2007,10,24,07,33,12.20
2007,10,24,07,34,12.20
2007,10,24,07,35,12.30
2007,10,24,07,36,12.60
2007,10,24,07,37,12.70
2007,10,24,07,38,12.80
2007,10,24,07,39,12.80
2007,10,24,07,40,12.90
2007,10,24,07,41,12.90
2007,10,24,07,42,13.00
2007,10,24,07,43,13.10
2007,10,24,07,44,13.10
2007,10,24,07,45,13.20
2007,10,24,07,46,13.40
2007,10,24,07,47,13.40
2007,10,24,07,48,13.50
2007,10,24,07,49,13.60
2007,10,24,07,50,13.70
2007,10,24,07,51,13.70
2007,10,24,07,52,13.80
2007,10,24,07,53,13.90
2007,10,24,07,54,13.90
2007,10,24,07,55,14.00
2007,10,24,07,56,14.10
2007,10,24,07,57,14.10
2007,10,24,07,58,14.10
2007,10,24,07,59,14.10
2007,10,24,08,00,14.10
2007,10,24,08,01,14.10
2007,10,24,08,02,14.10
2007,10,24,08,03,14.00
2007,10,24,08,04,14.00
2007,10,24,08,05,14.00
2007,10,24,08,06,14.00
2007,10,24,08,07,14.00
2007,10,24,08,08,13.90
2007,10,24,08,09,13.90
2007,10,24,08,10,13.90
2007,10,24,08,11,13.90
2007,10,24,08,12,13.90
2007,10,24,08,13,13.90
2007,10,24,08,14,13.90
2007,10,24,08,15,13.80
2007,10,24,08,16,13.80
2007,10,24,08,17,13.80
2007,10,24,08,18,13.80
2007,10,24,08,19,13.80
2007,10,24,08,20,13.80
2007,10,24,08,21,13.80
2007,10,24,08,22,13.80
2007,10,24,08,23,13.70
2007,10,24,08,24,13.70
2007,10,24,08,25,13.80
2007,10,24,08,26,13.80
2007,10,24,08,27,13.70
2007,10,24,08,28,13.70
2007,10,24,08,29,13.70
2007,10,24,08,30,13.70
2007,10,24,08,31,13.70
2007,10,24,08,32,13.70
2007,10,24,08,33,13.70
2007,10,24,08,34,13.70
2007,10,24,08,35,13.60
2007,10,24,08,36,13.60
2007,10,24,08,37,13.60
2007,10,24,08,38,13.60
2007,10,24,08,39,13.60
2007,10,24,08,40,13.60
2007,10,24,08,41,13.50
2007,10,24,08,42,13.50
2007,10,24,08,43,13.50
2007,10,24,08,44,13.40
2007,10,24,08,45,13.40
2007,10,24,08,46,13.40
2007,10,24,08,47,13.40
2007,10,24,08,48,13.40
2007,10,24,08,49,13.40
2007,10,24,08,50,13.30
2007,10,24,08,51,13.30
2007,10,24,08,52,13.30
2007,10,24,08,53,13.30
2007,10,24,08,54,13.30
2007,10,24,08,55,13.30
2007,10,24,08,56,13.30
2007,10,24,08,57,13.30
2007,10,24,08,58,13.30
2007,10,24,08,59,13.30
2007,10,24,09,00,13.30
2007,10,24,09,01,13.30
2007,10,24,09,02,13.30
2007,10,24,09,03,13.30
2007,10,24,09,04,13.20
2007,10,24,09,05,13.20
2007,10,24,09,06,13.20
2007,10,24,09,07,13.00
2007,10,24,09,08,12.70
2007,10,24,09,09,12.30
2007,10,24,09,10,12.00
2007,10,24,09,11,11.70
2007,10,24,09,12,11.60
2007,10,24,09,13,11.50
2007,10,24,09,14,11.40
2007,10,24,09,15,11.30
2007,10,24,09,16,11.20
2007,10,24,09,17,11.10
2007,10,24,09,18,11.10
2007,10,24,09,19,11.00
2007,10,24,09,20,11.00
2007,10,24,09,21,10.90
2007,10,24,09,22,10.80
2007,10,24,09,23,10.80
2007,10,24,09,24,10.70
2007,10,24,09,25,10.70
2007,10,24,09,26,10.70
2007,10,24,09,27,10.60
2007,10,24,09,28,10.60
2007,10,24,09,29,10.60
2007,10,24,09,30,10.60
2007,10,24,09,31,10.60
2007,10,24,09,32,10.60
2007,10,24,09,33,10.60
2007,10,24,09,34,10.60
2007,10,24,09,35,10.50
2007,10,24,09,36,10.50
2007,10,24,09,37,10.50
2007,10,24,09,38,10.50
2007,10,24,09,39,10.50
2007,10,24,09,40,10.50
2007,10,24,09,41,10.50
2007,10,24,09,42,10.50
2007,10,24,09,43,10.40
2007,10,24,09,44,10.40
2007,10,24,09,45,10.40
2007,10,24,09,46,10.40
2007,10,24,09,47,10.30
2007,10,24,09,48,10.30
2007,10,24,09,49,10.30
2007,10,24,09,50,10.30
2007,10,24,09,51,10.30
2007,10,24,09,52,10.20
2007,10,24,09,53,10.20
2007,10,24,09,54,10.20
2007,10,24,09,55,10.20
2007,10,24,09,56,10.20
2007,10,24,09,57,10.20
2007,10,24,09,58,10.20
2007,10,24,09,59,10.20
2007,10,24,10,00,10.20
2007,10,24,10,01,10.20
2007,10,24,10,02,10.20
2007,10,24,10,03,10.20
2007,10,24,10,04,10.10
2007,10,24,10,05,10.10
2007,10,24,10,06,10.10
2007,10,24,10,07,10.10
2007,10,24,10,08,10.10
2007,10,24,10,09,10.10
2007,10,24,10,10,10.10
2007,10,24,10,11,10.10
2007,10,24,10,12,10.10
2007,10,24,10,13,10.10
2007,10,24,10,14,10.10
2007,10,24,10,15,10.10
2007,10,24,10,16,10.10
2007,10,24,10,17,10.10
2007,10,24,10,18,10.10
2007,10,24,10,19,10.10
2007,10,24,10,20,10.00
2007,10,24,10,21,10.00
2007,10,24,10,22,10.00
2007,10,24,10,23,10.00
2007,10,24,10,24,10.00
2007,10,24,10,25,10.00
2007,10,24,10,26,10.00
2007,10,24,10,27,10.10
2007,10,24,10,28,10.10
2007,10,24,10,29,10.10
2007,10,24,10,30,10.10
2007,10,24,10,31,10.10
2007,10,24,10,32,10.10
2007,10,24,10,33,10.10
2007,10,24,10,34,10.10
2007,10,24,10,35,10.00
2007,10,24,10,36,10.10
2007,10,24,10,37,10.00
2007,10,24,10,38,10.00
2007,10,24,10,39,10.00
2007,10,24,10,40,10.00
2007,10,24,10,41,10.00
2007,10,24,10,42,10.00
2007,10,24,10,43,10.00
2007,10,24,10,44,10.00
2007,10,24,10,45,9.90
2007,10,24,10,46,9.90
2007,10,24,10,47,9.90
2007,10,24,10,48,9.90
2007,10,24,10,49,9.90
2007,10,24,10,50,9.90
2007,10,24,10,51,9.90
2007,10,24,10,52,9.90
2007,10,24,10,53,9.90
2007,10,24,10,54,9.90
2007,10,24,10,55,9.90
2007,10,24,10,56,9.90
2007,10,24,10,57,9.90
2007,10,24,10,58,9.90
2007,10,24,10,59,9.90
2007,10,24,11,00,9.90
2007,10,24,11,01,9.90
2007,10,24,11,02,9.90
2007,10,24,11,03,9.90
2007,10,24,11,04,9.80
2007,10,24,11,05,9.80
2007,10,24,11,06,9.80
2007,10,24,11,07,9.80
2007,10,24,11,08,9.80
2007,10,24,11,09,9.80
2007,10,24,11,10,9.80
2007,10,24,11,11,9.80
2007,10,24,11,12,9.80
2007,10,24,11,13,9.80
2007,10,24,11,14,9.90
2007,10,24,11,15,9.90
2007,10,24,11,16,9.90
2007,10,24,11,17,9.90
2007,10,24,11,18,9.90
2007,10,24,11,19,9.90
2007,10,24,11,20,9.90
2007,10,24,11,21,9.90
2007,10,24,11,22,10.00
2007,10,24,11,23,10.00
2007,10,24,11,24,10.00
2007,10,24,11,25,10.00
2007,10,24,11,26,10.10
2007,10,24,11,27,10.10
2007,10,24,11,28,10.10
2007,10,24,11,29,10.10
2007,10,24,11,30,10.10
2007,10,24,11,31,10.10
2007,10,24,11,32,10.10
2007,10,24,11,33,10.10
2007,10,24,11,34,10.00
2007,10,24,11,35,10.00
2007,10,24,11,36,10.00
2007,10,24,11,37,9.90
2007,10,24,11,38,9.90
2007,10,24,11,39,9.90
2007,10,24,11,40,9.80
2007,10,24,11,41,9.80
2007,10,24,11,42,9.80
2007,10,24,11,43,9.80
2007,10,24,11,44,9.80
2007,10,24,11,45,9.80
2007,10,24,11,46,9.80
2007,10,24,11,47,9.80
2007,10,24,11,48,9.80
2007,10,24,11,49,9.80
2007,10,24,11,50,9.90
2007,10,24,11,51,9.90
2007,10,24,11,52,10.00
2007,10,24,11,53,10.00
2007,10,24,11,54,10.00
2007,10,24,11,55,10.00
2007,10,24,11,56,10.00
2007,10,24,11,57,10.00
2007,10,24,11,58,10.00
2007,10,24,11,59,10.00
2007,10,24,12,00,10.00
2007,10,24,12,01,10.00
2007,10,24,12,02,10.00
2007,10,24,12,03,10.00
2007,10,24,12,04,10.00
2007,10,24,12,05,9.90
2007,10,24,12,06,9.90
2007,10,24,12,07,9.90
2007,10,24,12,08,9.90
2007,10,24,12,09,9.90
2007,10,24,12,10,9.90
2007,10,24,12,11,9.90
2007,10,24,12,12,9.90
2007,10,24,12,13,9.90
2007,10,24,12,14,9.90
2007,10,24,12,15,9.80
2007,10,24,12,16,9.80
2007,10,24,12,17,9.80
2007,10,24,12,18,9.80
2007,10,24,12,19,9.80
2007,10,24,12,20,9.90
2007,10,24,12,21,9.90
2007,10,24,12,22,9.90
2007,10,24,12,23,9.90
2007,10,24,12,24,10.00
2007,10,24,12,25,10.00
2007,10,24,12,26,10.10
2007,10,24,12,27,10.10
2007,10,24,12,28,10.20
2007,10,24,12,29,10.20
2007,10,24,12,30,10.30
2007,10,24,12,31,10.40
2007,10,24,12,32,10.40
2007,10,24,12,33,10.50
2007,10,24,12,34,10.50
2007,10,24,12,35,10.60
2007,10,24,12,36,10.60
2007,10,24,12,37,10.60
2007,10,24,12,38,10.70
2007,10,24,12,39,10.70
2007,10,24,12,40,10.70
2007,10,24,12,41,10.70
2007,10,24,12,42,10.70
2007,10,24,12,43,10.70
2007,10,24,12,44,10.80
2007,10,24,12,45,10.80
2007,10,24,12,46,10.80
2007,10,24,12,47,10.90
2007,10,24,12,48,11.00
2007,10,24,12,49,11.10
2007,10,24,12,50,11.10
2007,10,24,12,51,11.10
2007,10,24,12,52,11.10
2007,10,24,12,53,11.10
2007,10,24,12,54,11.10
2007,10,24,12,55,11.10
2007,10,24,12,56,11.10
2007,10,24,12,57,11.10
2007,10,24,12,58,11.10
2007,10,24,12,59,11.20
2007,10,24,13,00,11.20
2007,10,24,13,01,11.20
2007,10,24,13,02,11.20
2007,10,24,13,03,11.30
2007,10,24,13,04,11.30
2007,10,24,13,05,11.30
2007,10,24,13,06,11.30
2007,10,24,13,07,11.30
2007,10,24,13,08,11.40
2007,10,24,13,09,11.40
2007,10,24,13,10,11.30
2007,10,24,13,11,11.30
2007,10,24,13,12,11.30
2007,10,24,13,13,11.30
2007,10,24,13,14,11.30
2007,10,24,13,15,11.30
2007,10,24,13,16,11.20
2007,10,24,13,17,11.10
2007,10,24,13,18,11.00
2007,10,24,13,19,10.90
2007,10,24,13,20,10.80
2007,10,24,13,21,10.80
2007,10,24,13,22,10.80
2007,10,24,13,23,10.80
2007,10,24,13,24,10.80
2007,10,24,13,25,10.90
2007,10,24,13,26,10.90
2007,10,24,13,27,11.00
2007,10,24,13,28,11.00
2007,10,24,13,29,11.10
2007,10,24,13,30,11.10
2007,10,24,13,31,11.10
2007,10,24,13,32,11.20
2007,10,24,13,33,11.20
2007,10,24,13,34,11.10
2007,10,24,13,35,11.10
2007,10,24,13,36,11.10
2007,10,24,13,37,11.10
2007,10,24,13,38,11.10
2007,10,24,13,39,11.20
2007,10,24,13,40,11.20
2007,10,24,13,41,11.20
2007,10,24,13,42,11.20
2007,10,24,13,43,11.30
2007,10,24,13,44,11.50
2007,10,24,13,45,11.60
2007,10,24,13,46,11.60
2007,10,24,13,47,11.60
2007,10,24,13,48,11.60
2007,10,24,13,49,11.60
2007,10,24,13,50,11.60
2007,10,24,13,51,11.60
2007,10,24,13,52,11.50
2007,10,24,13,53,11.40
2007,10,24,13,54,11.40
2007,10,24,13,55,11.30
2007,10,24,13,56,11.30
2007,10,24,13,57,11.30
2007,10,24,13,58,11.30
2007,10,24,13,59,11.50
2007,10,24,14,00,11.70
2007,10,24,14,01,11.90
2007,10,24,14,02,12.00
2007,10,24,14,03,12.10
2007,10,24,14,04,12.10
2007,10,24,14,05,12.00
2007,10,24,14,06,12.00
2007,10,24,14,07,11.90
2007,10,24,14,08,11.80
2007,10,24,14,09,11.70
2007,10,24,14,10,11.60
2007,10,24,14,11,11.50
2007,10,24,14,12,11.40
2007,10,24,14,13,11.40
2007,10,24,14,14,11.50
2007,10,24,14,15,11.50
2007,10,24,14,16,11.50
2007,10,24,14,17,11.40
2007,10,24,14,18,11.40
2007,10,24,14,19,11.30
2007,10,24,14,20,11.30
2007,10,24,14,21,11.20
2007,10,24,14,22,11.20
2007,10,24,14,23,11.20
2007,10,24,14,24,11.20
2007,10,24,14,25,11.20
2007,10,24,14,26,11.10
2007,10,24,14,27,11.00
2007,10,24,14,28,11.00
2007,10,24,14,29,10.90
2007,10,24,14,30,10.90
2007,10,24,14,31,10.90
2007,10,24,14,32,10.80
2007,10,24,14,33,10.80
2007,10,24,14,34,10.80
2007,10,24,14,35,10.80
2007,10,24,14,36,10.70
2007,10,24,14,37,10.70
2007,10,24,14,38,10.60
2007,10,24,14,39,10.60
2007,10,24,14,40,10.60
2007,10,24,14,41,10.60
2007,10,24,14,42,10.50
2007,10,24,14,43,10.50
2007,10,24,14,44,10.50
2007,10,24,14,45,10.50
2007,10,24,14,46,10.50
2007,10,24,14,47,10.40
2007,10,24,14,48,10.40
2007,10,24,14,49,10.40
2007,10,24,14,50,10.40
2007,10,24,14,51,10.40
2007,10,24,14,52,10.40
2007,10,24,14,53,10.50
2007,10,24,14,54,10.50
2007,10,24,14,55,10.60
2007,10,24,14,56,10.60
2007,10,24,14,57,10.60
2007,10,24,14,58,10.60
2007,10,24,14,59,10.70
2007,10,24,15,00,10.70
2007,10,24,15,01,10.70
2007,10,24,15,02,10.80
2007,10,24,15,03,10.80
2007,10,24,15,04,10.90
2007,10,24,15,05,11.00
2007,10,24,15,06,11.10
2007,10,24,15,07,11.20
2007,10,24,15,08,11.20
2007,10,24,15,09,11.30
2007,10,24,15,10,11.30
2007,10,24,15,11,11.40
2007,10,24,15,12,11.40
2007,10,24,15,13,11.40
2007,10,24,15,14,11.30
2007,10,24,15,15,11.30
2007,10,24,15,16,11.30
2007,10,24,15,17,11.30
2007,10,24,15,18,11.30
2007,10,24,15,19,11.40
2007,10,24,15,20,11.40
2007,10,24,15,21,11.40
2007,10,24,15,22,11.40
2007,10,24,15,23,11.40
2007,10,24,15,24,11.30
2007,10,24,15,25,11.30
2007,10,24,15,26,11.30
2007,10,24,15,27,11.30
2007,10,24,15,28,11.30
2007,10,24,15,29,11.40
2007,10,24,15,30,11.40
2007,10,24,15,31,11.40
2007,10,24,15,32,11.40
2007,10,24,15,33,11.30
2007,10,24,15,34,11.30
2007,10,24,15,35,11.30
2007,10,24,15,36,11.30
2007,10,24,15,37,11.20
2007,10,24,15,38,11.20
2007,10,24,15,39,11.30
2007,10,24,15,40,11.30
2007,10,24,15,41,11.30
2007,10,24,15,42,11.30
2007,10,24,15,43,11.30
2007,10,24,15,44,11.20
2007,10,24,15,45,11.20
2007,10,24,15,46,11.10
2007,10,24,15,47,11.00
2007,10,24,15,48,11.00
2007,10,24,15,49,10.90
2007,10,24,15,50,11.00
2007,10,24,15,51,11.00
2007,10,24,15,52,11.10
2007,10,24,15,53,11.10
2007,10,24,15,54,11.20
2007,10,24,15,55,11.20
2007,10,24,15,56,11.20
2007,10,24,15,57,11.20
2007,10,24,15,58,11.20
2007,10,24,15,59,11.20
2007,10,24,16,00,11.20
2007,10,24,16,01,11.20
2007,10,24,16,02,11.20
2007,10,24,16,03,11.10
2007,10,24,16,04,11.10
2007,10,24,16,05,11.10
2007,10,24,16,06,11.10
2007,10,24,16,07,11.10
2007,10,24,16,08,11.10
2007,10,24,16,09,11.10
2007,10,24,16,10,11.10
2007,10,24,16,11,11.10
2007,10,24,16,12,11.10
2007,10,24,16,13,11.10
2007,10,24,16,14,11.10
2007,10,24,16,15,11.10
2007,10,24,16,16,11.10
2007,10,24,16,17,11.10
2007,10,24,16,18,11.10
2007,10,24,16,19,11.20
2007,10,24,16,20,11.20
2007,10,24,16,21,11.20
2007,10,24,16,22,11.20
2007,10,24,16,23,11.20
2007,10,24,16,24,11.20
2007,10,24,16,25,11.20
2007,10,24,16,26,11.20
2007,10,24,16,27,11.10
2007,10,24,16,28,11.20
2007,10,24,16,29,11.20
2007,10,24,16,30,11.20
2007,10,24,16,31,11.20
2007,10,24,16,32,11.20
2007,10,24,16,33,11.20
2007,10,24,16,34,11.20
2007,10,24,16,35,11.20
2007,10,24,16,36,11.20
2007,10,24,16,37,11.30
2007,10,24,16,38,11.30
2007,10,24,16,39,11.30
2007,10,24,16,40,11.40
2007,10,24,16,41,11.40
2007,10,24,16,42,11.40
2007,10,24,16,43,11.40
2007,10,24,16,44,11.40
2007,10,24,16,45,11.30
2007,10,24,16,46,11.20
2007,10,24,16,47,11.20
2007,10,24,16,48,11.10
2007,10,24,16,49,11.00
2007,10,24,16,50,11.00
2007,10,24,16,51,10.80
2007,10,24,16,52,10.70
2007,10,24,16,53,10.50
2007,10,24,16,54,10.40
2007,10,24,16,55,10.30
2007,10,24,16,56,10.30
2007,10,24,16,57,10.20
2007,10,24,16,58,10.10
2007,10,24,16,59,10.10
2007,10,24,17,00,10.10
2007,10,24,17,01,10.10
2007,10,24,17,02,10.00
2007,10,24,17,03,10.00
2007,10,24,17,04,10.10
2007,10,24,17,05,10.10
2007,10,24,17,06,10.10
2007,10,24,17,07,10.10
2007,10,24,17,08,10.10
2007,10,24,17,09,10.10
2007,10,24,17,10,10.10
2007,10,24,17,11,10.20
2007,10,24,17,12,10.20
2007,10,24,17,13,10.20
2007,10,24,17,14,10.20
2007,10,24,17,15,10.20
2007,10,24,17,16,10.20
2007,10,24,17,17,10.20
2007,10,24,17,18,10.30
2007,10,24,17,19,10.30
2007,10,24,17,20,10.40
2007,10,24,17,21,10.40
2007,10,24,17,22,10.40